Date,TemperatureHighF,TemperatureAvgF,TemperatureLowF,DewpointHighF,DewpointAvgF,DewpointLowF,HumidityHigh,HumidityAvg,HumidityLow,PressureMaxIn,PressureMinIn,WindSpeedMaxMPH,WindSpeedAvgMPH,GustSpeedMaxMPH,PrecipitationSumIn
2013-1-1,60,54,49,48,34,-100,82,68,63,30.09,30.01,10,1,10,0.00
2013-1-2,59,52,48,50,46,43,83,79,68,30.27,30.08,7,1,7,0.00
2013-1-3,62,54,49,51,46,43,85,76,61,30.37,30.26,5,1,5,0.00
2013-1-4,59,52,48,44,40,34,77,63,40,30.31,30.02,5,0,5,0.00
2013-1-5,58,52,49,40,36,33,69,54,41,30.02,29.75,10,2,10,0.00
2013-1-6,52,50,15,38,37,2,63,60,56,29.76,29.67,16,5,16,0.00
2013-1-16,56,54,52,48,45,43,76,69,67,29.67,29.62,10,5,10,0.00
2013-1-17,58,50,49,51,43,41,78,76,71,29.69,29.60,16,2,16,0.00
2013-1-18,60,55,48,51,47,39,83,75,63,29.60,29.41,20,6,20,0.14
2013-1-19,48,48,47,40,39,39,74,70,70,29.54,29.49,5,0,5,0.00
2013-1-20,58,50,48,52,41,39,83,72,70,29.92,29.54,6,0,6,0.00
2013-1-21,65,58,53,54,50,45,85,75,49,29.88,29.60,14,3,14,0.00
2013-1-22,62,57,52,53,48,46,85,73,58,29.76,29.63,16,2,16,0.00
2013-1-23,62,56,53,48,43,40,74,61,48,29.92,29.75,13,2,13,0.00
2013-1-24,64,56,50,53,48,44,85,75,64,29.91,29.54,20,4,20,0.47
2013-1-25,60,53,48,49,46,42,83,77,63,29.61,29.44,22,3,22,0.43
2013-1-26,59,52,49,49,45,43,84,78,65,29.61,29.39,9,2,9,0.31
2013-1-27,49,48,48,44,41,41,82,76,76,29.71,29.62,9,5,9,0.00
2013-1-28,48,48,48,41,41,41,76,76,76,29.71,29.71,6,6,6,0.00
2013-2-2,58,57,56,51,31,-100,81,68,76,29.77,29.75,13,4,13,2.90
2013-2-3,65,60,57,54,53,51,86,78,64,29.88,29.73,29,8,29,0.00
2013-2-4,68,60,56,56,53,50,87,77,59,29.94,29.87,16,2,16,0.00
2013-2-5,64,59,54,53,50,45,85,72,57,29.95,29.79,13,3,13,0.00
2013-2-6,64,57,52,52,47,44,77,71,62,29.80,29.62,11,2,11,0.00
2013-2-7,62,57,54,51,48,45,82,73,64,29.66,29.46,22,6,22,0.22
2013-2-8,60,54,49,46,42,40,74,64,53,29.70,29.48,15,2,15,0.02
2013-2-9,61,53,47,43,41,40,78,65,49,29.83,29.71,16,2,16,0.00
2013-2-10,60,53,48,41,39,36,68,58,45,29.84,29.75,14,2,14,0.00
2013-2-11,57,50,46,38,36,33,72,57,42,30.01,29.73,18,3,18,0.00
2013-2-12,59,49,46,48,38,33,72,67,58,30.02,29.96,10,2,10,0.00
2013-2-13,58,54,49,49,46,43,85,76,63,29.96,29.85,16,4,16,1.16
2013-2-14,54,51,49,47,46,43,85,82,75,29.87,29.74,58,2,58,0.12
2013-2-15,50,50,50,46,46,46,84,84,84,29.74,29.74,0,0,0,0.00
2013-2-23,58,56,54,49,49,48,82,77,68,30.00,29.91,3,0,3,0.04
2013-2-24,67,59,51,56,50,46,88,73,56,30.05,29.97,17,2,17,0.00
2013-2-25,69,61,55,54,51,48,86,71,54,30.04,29.93,15,3,15,0.00
2013-2-26,67,61,54,55,49,41,83,67,45,29.99,29.91,17,3,17,0.00
2013-2-27,60,56,52,45,41,38,68,58,44,30.01,29.89,18,3,18,0.00
2013-2-28,56,51,48,41,40,38,71,65,58,30.17,30.01,58,5,58,0.00
2013-3-1,60,51,45,40,38,35,72,61,47,30.15,29.98,9,2,9,0.00
2013-3-2,62,54,47,47,43,39,75,66,56,29.98,29.83,12,2,12,0.00
2013-3-3,57,53,49,47,42,37,87,69,53,29.93,29.73,65,8,65,0.12
2013-3-4,62,50,46,42,40,38,76,68,46,30.13,29.92,114,20,114,0.00
2013-3-5,58,51,48,42,38,34,72,62,49,30.39,30.13,58,7,58,0.00
2013-3-6,56,49,47,38,36,35,64,61,49,30.37,30.10,15,5,15,0.00
2013-3-7,59,55,52,50,46,39,83,72,58,30.11,29.89,8,1,8,0.16
2013-3-8,67,58,52,53,50,48,86,76,56,29.88,29.80,9,1,9,0.00
2013-3-9,70,60,54,55,52,49,87,73,57,29.81,29.67,13,2,13,0.00
2013-3-10,70,62,56,51,49,47,76,65,45,29.77,29.66,10,2,10,0.00
2013-3-11,70,66,59,57,53,46,74,63,57,29.67,29.52,10,3,10,0.00
2013-3-12,70,62,58,47,45,42,64,53,38,29.66,29.52,16,3,16,0.00
2013-3-13,69,61,54,54,47,44,78,61,47,29.69,29.62,17,3,17,0.00
2013-3-14,73,64,59,54,50,41,80,61,39,29.65,29.23,20,6,20,0.00
2013-3-15,65,58,52,45,41,37,61,53,44,29.56,29.32,17,5,17,0.00
2013-3-16,57,52,48,39,37,34,65,56,45,29.95,29.54,15,3,15,0.00
2013-3-17,61,52,46,37,35,32,66,54,36,30.13,29.95,12,2,12,0.00
2013-3-18,62,53,47,47,41,36,77,64,47,30.14,29.90,12,2,12,0.00
2013-3-19,67,60,54,53,50,46,80,71,59,29.91,29.72,17,4,17,0.00
2013-3-20,71,62,53,55,50,47,82,68,51,29.86,29.75,10,1,10,0.00
2013-3-21,70,63,58,54,52,45,80,67,53,29.76,29.47,16,2,16,0.00
2013-3-22,64,59,53,44,38,32,62,47,35,29.71,29.49,22,8,22,0.00
2013-3-23,67,58,50,41,30,21,59,36,24,29.92,29.71,13,3,13,0.00
2013-3-24,68,59,52,50,46,40,73,61,49,29.96,29.88,16,3,16,0.00
2013-3-25,70,62,56,54,51,48,79,67,51,29.89,29.55,17,4,17,0.00
2013-3-26,69,62,57,54,48,44,80,62,47,29.60,29.47,16,4,16,0.00
2013-3-27,71,62,56,53,48,43,66,59,47,29.77,29.60,13,2,13,0.00
2013-3-28,72,62,57,53,50,46,78,66,51,30.00,29.77,8,2,8,0.10
2013-3-29,71,62,55,54,52,49,81,69,52,30.00,29.93,9,1,9,0.00
2013-3-30,76,66,58,54,52,50,77,62,42,29.93,29.76,15,2,15,0.00
2013-3-31,75,66,60,57,53,49,76,64,51,29.79,29.66,14,3,14,0.00
2013-4-1,73,65,58,55,46,39,80,53,30,29.81,29.70,17,3,17,0.00
2013-4-2,76,67,59,53,47,44,62,50,34,29.81,29.49,17,3,17,0.00
2013-4-3,73,66,60,56,48,42,77,55,35,29.60,29.39,20,5,20,0.00
2013-4-4,73,64,57,46,44,41,61,49,33,29.87,29.60,17,3,17,0.00
2013-4-5,74,65,58,52,46,40,61,51,30,29.89,29.72,20,4,20,0.00
2013-4-6,76,67,59,54,50,47,69,56,44,29.74,29.63,7,1,7,0.00
2013-4-7,74,67,62,58,51,47,71,58,50,29.63,29.23,21,6,21,0.00
2013-4-8,64,61,58,51,48,47,75,63,55,29.82,29.33,19,4,19,0.04
2013-4-9,71,62,55,50,48,46,76,60,43,29.93,29.82,15,2,15,0.00
2013-4-10,74,64,56,51,48,46,72,58,39,29.94,29.84,18,2,18,0.00
2013-4-11,77,66,56,52,48,46,70,55,35,29.96,29.85,11,2,11,0.00
2013-4-12,77,66,58,52,49,43,69,54,39,30.01,29.93,13,2,13,0.00
2013-4-13,78,67,59,51,48,46,64,51,38,30.03,29.98,14,2,14,0.00
2013-4-14,79,68,62,52,49,44,66,52,33,30.03,29.96,18,4,18,0.00
2013-4-15,67,61,58,45,43,39,61,52,40,30.03,29.94,21,6,21,0.00
2013-4-16,67,59,53,45,42,39,72,54,37,30.03,29.94,20,6,20,0.02
2013-4-17,68,61,56,40,35,28,55,39,24,30.04,29.98,19,5,19,0.00
2013-4-18,66,60,55,39,33,28,53,37,24,30.03,29.96,20,6,20,0.00
2013-4-19,64,58,54,45,37,32,63,46,39,29.97,29.89,17,4,17,0.02
2013-4-20,68,60,54,45,40,36,59,47,36,29.99,29.89,14,4,14,0.00
2013-4-21,74,64,55,47,41,37,57,44,30,29.99,29.88,16,3,16,0.00
2013-4-22,77,66,57,50,43,40,58,45,31,30.01,29.93,11,2,11,0.00
2013-4-23,78,67,59,50,45,41,55,46,37,30.16,30.01,14,3,14,0.00
2013-4-24,81,70,59,52,44,36,60,42,21,30.25,30.16,11,3,11,0.00
2013-4-25,84,73,62,50,46,42,48,39,28,30.22,30.08,12,3,12,0.00
2013-4-26,87,74,64,51,46,40,50,37,24,30.10,29.92,10,2,10,0.00
2013-4-27,85,75,64,49,46,40,49,37,25,29.93,29.82,17,2,17,0.00
2013-4-28,85,74,64,54,46,39,61,39,23,29.98,29.86,11,2,11,0.00
2013-4-29,86,75,65,52,46,40,51,38,26,30.03,29.96,12,1,12,0.00
2013-4-30,88,78,66,52,46,43,52,34,25,30.03,29.94,17,4,17,0.00
2013-5-1,89,79,70,52,48,42,45,34,26,29.99,29.87,19,4,19,0.00
2013-5-2,89,80,72,49,44,39,37,28,20,29.89,29.82,19,6,19,0.00
2013-5-3,92,83,73,58,54,49,53,38,27,29.82,29.75,11,3,11,0.00
2013-5-4,91,79,70,58,56,53,56,46,32,29.89,29.77,9,2,9,0.00
2013-5-5,92,80,71,57,55,53,55,43,29,29.98,29.86,12,2,12,0.00
2013-5-6,88,79,73,58,54,50,52,42,30,29.99,29.90,19,6,19,0.00
2013-5-7,86,78,72,54,52,50,51,40,30,29.93,29.78,16,6,16,0.00
2013-5-8,82,73,67,59,57,51,67,57,43,29.83,29.74,15,3,15,0.00
2013-5-9,80,70,65,58,55,53,68,60,46,29.82,29.75,20,6,20,0.00
2013-5-10,77,69,63,58,54,51,74,60,46,29.82,29.75,14,4,14,0.02
2013-5-11,85,74,64,59,55,51,69,52,38,29.81,29.67,13,2,13,0.00
2013-5-12,88,76,69,58,56,52,65,51,34,29.69,29.56,16,3,16,0.00
2013-5-13,78,70,65,58,52,49,70,54,39,29.63,29.56,12,3,12,0.16
2013-5-14,76,68,62,57,52,50,75,59,44,29.78,29.60,14,3,14,0.16
2013-5-15,84,73,62,57,54,50,68,53,35,29.80,29.75,12,2,12,0.00
2013-5-16,84,72,65,61,55,50,69,56,37,29.84,29.76,14,2,14,0.00
2013-5-17,84,74,67,62,58,52,70,58,43,29.86,29.74,9,2,9,0.00
2013-5-18,91,78,68,64,60,58,73,55,40,29.92,29.82,14,2,14,0.00
2013-5-19,95,82,72,64,59,55,62,47,31,29.90,29.81,11,2,11,0.00
2013-5-20,96,83,73,64,60,56,60,47,33,29.85,29.78,11,2,11,0.00
2013-5-21,96,84,74,61,58,54,57,43,25,29.85,29.78,12,2,12,0.00
2013-5-22,91,81,73,61,57,49,54,44,24,29.83,29.65,16,2,16,0.00
2013-5-23,90,81,72,62,54,45,58,42,30,29.65,29.51,22,6,22,0.00
2013-5-24,86,76,68,56,52,49,53,43,35,29.84,29.64,17,4,17,0.00
2013-5-25,85,77,67,55,51,48,51,42,30,29.88,29.82,18,3,18,0.00
2013-5-26,89,79,69,55,51,48,53,39,26,29.88,29.76,14,3,14,0.00
2013-5-27,87,76,67,52,45,40,48,34,23,29.89,29.83,15,4,15,0.00
2013-5-28,84,74,67,60,54,50,61,51,36,29.89,29.69,10,2,10,0.00
2013-5-29,92,80,73,62,54,43,56,41,33,29.69,29.49,15,4,15,0.00
2013-5-30,93,81,72,61,56,49,62,43,27,29.66,29.57,20,3,20,0.00
2013-5-31,86,78,70,56,50,42,53,39,27,29.73,29.52,18,4,18,0.00
2013-6-1,84,73,65,57,49,41,64,43,29,29.80,29.71,15,3,15,0.02
2013-6-2,86,74,65,56,52,47,68,49,34,29.77,29.60,19,4,19,0.02
2013-6-3,87,76,66,55,52,48,58,44,27,29.81,29.76,14,3,14,0.00
2013-6-4,88,78,68,58,54,48,63,46,29,29.82,29.74,18,2,18,0.00
2013-6-5,88,78,68,57,53,48,56,42,26,29.88,29.80,18,3,18,0.00
2013-6-6,92,79,69,62,57,54,63,48,31,29.94,29.86,15,2,15,0.00
2013-6-7,87,78,72,59,55,50,60,46,30,29.93,29.76,10,2,10,0.00
2013-6-8,89,78,71,60,58,54,64,51,36,29.79,29.72,13,4,13,0.00
2013-6-9,88,76,68,61,59,56,67,56,40,29.85,29.79,8,2,8,0.00
2013-6-13,79,75,71,58,57,55,63,54,47,29.77,29.71,13,4,14,0.00
2013-6-14,85,76,69,63,59,56,67,56,43,29.83,29.75,11,2,15,0.00
2013-6-15,92,81,70,64,60,57,63,50,36,29.87,29.81,14,2,14,0.00
2013-6-16,98,84,72,68,63,58,65,51,34,29.89,29.83,10,2,10,0.00
2013-6-17,96,84,75,64,60,57,63,47,30,29.90,29.85,15,3,15,0.00